| time (UTC) | temp C | wind direction | speed KPH | gust KPH | rain 1hr cm | rain 24hr cm | rain mn cm | humidity % | barometer mb |
| 20260505004301 | 18 | 233 | 6.4 | 11.3 | 93.04 | 0.00 | 0.00 | 68 | 1004.0 |
| 20260505003302 | 18 | 210 | 4.8 | 9.7 | 93.04 | 0.00 | 0.00 | 68 | 1003.9 |
| 20260505002301 | 18 | 184 | 6.4 | 12.9 | 93.04 | 0.00 | 0.00 | 67 | 1003.8 |
| 20260505001301 | 18 | 222 | 6.4 | 11.3 | 93.04 | 0.00 | 0.00 | 66 | 1003.9 |
| 20260505000301 | 18 | 225 | 9.7 | 16.1 | 93.04 | 0.00 | 0.00 | 65 | 1003.9 |
| 20260504235301 | 19 | 253 | 9.7 | 14.5 | 93.04 | 0.00 | 0.00 | 65 | 1003.9 |
| 20260504234304 | 19 | 222 | 11.3 | 20.9 | 93.04 | 0.00 | 0.00 | 64 | 1003.8 |
| 20260504233303 | 20 | 229 | 11.3 | 17.7 | 93.04 | 0.00 | 0.00 | 63 | 1003.8 |
| 20260504232304 | 20 | 198 | 14.5 | 20.9 | 93.04 | 0.00 | 0.00 | 61 | 1003.7 |
| 20260504231301 | 20 | 232 | 14.5 | 27.4 | 93.04 | 0.00 | 0.00 | 60 | 1003.6 |
| 20260504230307 | 20 | 221 | 12.9 | 24.1 | 93.04 | 0.00 | 0.00 | 60 | 1003.6 |
| 20260504225304 | 21 | 246 | 19.3 | 27.4 | 93.04 | 0.00 | 0.00 | 56 | 1003.5 |
| 20260504224303 | 21 | 260 | 19.3 | 29.0 | 93.04 | 0.00 | 0.00 | 57 | 1003.4 |
| 20260504223303 | 21 | 239 | 16.1 | 24.1 | 93.04 | 0.00 | 0.00 | 57 | 1003.4 |
| 20260504222304 | 21 | 252 | 19.3 | 27.4 | 93.04 | 0.00 | 0.00 | 60 | 1003.4 |
| 20260504221301 | 20 | 252 | 17.7 | 32.2 | 93.04 | 0.00 | 0.00 | 58 | 1003.5 |
| 20260504220311 | 20 | 245 | 16.1 | 25.7 | 93.04 | 0.00 | 0.00 | 59 | 1003.5 |
| 20260504215302 | 19 | 249 | 14.5 | 20.9 | 93.04 | 0.00 | 0.00 | 59 | 1003.6 |
| 20260504214306 | 20 | 245 | 19.3 | 33.8 | 93.04 | 0.00 | 0.00 | 59 | 1003.7 |
| 20260504213304 | 20 | 252 | 17.7 | 22.5 | 93.04 | 0.00 | 0.00 | 60 | 1003.8 |
| 20260504212304 | 20 | 257 | 16.1 | 27.4 | 93.04 | 0.00 | 0.00 | 60 | 1003.7 |
| 20260504211301 | 20 | 262 | 17.7 | 29.0 | 93.04 | 0.00 | 0.00 | 59 | 1003.8 |
| 20260504210306 | 20 | 277 | 19.3 | 27.4 | 93.04 | 0.00 | 0.00 | 59 | 1003.8 |
| 20260504205301 | 19 | 259 | 19.3 | 27.4 | 93.04 | 0.00 | 0.00 | 60 | 1003.9 |
| 20260504204304 | 19 | 269 | 19.3 | 27.4 | 93.04 | 0.00 | 0.00 | 60 | 1003.8 |
| 20260504203307 | 19 | 240 | 20.9 | 32.2 | 93.04 | 0.00 | 0.00 | 59 | 1004.1 |
| 20260504202307 | 19 | 250 | 19.3 | 30.6 | 93.04 | 0.00 | 0.00 | 60 | 1004.4 |
| 20260504201302 | 19 | 281 | 20.9 | 32.2 | 93.04 | 0.00 | 0.00 | 60 | 1004.4 |
| 20260504200306 | 20 | 283 | 20.9 | 25.7 | 93.04 | 0.00 | 0.00 | 59 | 1004.6 |
| 20260504195304 | 19 | 274 | 22.5 | 35.4 | 93.04 | 0.00 | 0.00 | 60 | 1004.8 |
| 20260504194303 | 19 | 253 | 20.9 | 29.0 | 93.04 | 0.00 | 0.00 | 60 | 1005.0 |
| 20260504193303 | 19 | 256 | 16.1 | 22.5 | 93.04 | 0.00 | 0.00 | 58 | 1005.1 |
| 20260504192304 | 19 | 246 | 19.3 | 25.7 | 93.04 | 0.00 | 0.00 | 62 | 1005.3 |
| 20260504191301 | 18 | 277 | 17.7 | 29.0 | 93.04 | 0.00 | 0.00 | 60 | 1005.2 |
| 20260504190307 | 19 | 255 | 20.9 | 30.6 | 93.04 | 0.00 | 0.00 | 61 | 1005.5 |
| 20260504185301 | 19 | 253 | 14.5 | 25.7 | 93.04 | 0.00 | 0.00 | 62 | 1005.5 |
| 20260504184303 | 18 | 222 | 14.5 | 27.4 | 93.04 | 0.00 | 0.00 | 61 | 1005.7 |
| 20260504183303 | 19 | 259 | 16.1 | 24.1 | 93.04 | 0.00 | 0.00 | 59 | 1005.8 |
| 20260504182304 | 19 | 255 | 16.1 | 22.5 | 93.04 | 0.00 | 0.00 | 60 | 1005.9 |
| 20260504181305 | 19 | 260 | 17.7 | 27.4 | 93.04 | 0.00 | 0.00 | 60 | 1006.2 |
| 20260504180305 | 18 | 239 | 14.5 | 22.5 | 93.04 | 0.00 | 0.00 | 62 | 1006.3 |
| 20260504175304 | 18 | 259 | 16.1 | 24.1 | 93.04 | 0.00 | 0.00 | 61 | 1006.5 |
| 20260504174304 | 18 | 274 | 16.1 | 20.9 | 93.04 | 0.00 | 0.00 | 60 | 1006.3 |
| 20260504173303 | 18 | 263 | 14.5 | 25.7 | 93.04 | 0.00 | 0.00 | 60 | 1006.5 |
| 20260504172312 | 19 | 240 | 14.5 | 22.5 | 93.04 | 0.00 | 0.00 | 63 | 1006.7 |
| 20260504171309 | 18 | 239 | 14.5 | 22.5 | 93.04 | 0.00 | 0.00 | 60 | 1006.9 |
| 20260504170309 | 18 | 281 | 14.5 | 29.0 | 93.04 | 0.00 | 0.00 | 60 | 1007.0 |
| 20260504160306 | 17 | 249 | 14.5 | 20.9 | 93.04 | 0.00 | 0.00 | 66 | 1008.0 |
| 20260504150311 | 16 | 264 | 14.5 | 19.3 | 93.04 | 0.00 | 0.00 | 74 | 1008.6 |
| 20260504141301 | 14 | 248 | 17.7 | 27.4 | 93.04 | 0.00 | 0.00 | 78 | 1008.9 |
| 20260504140307 | 13 | 273 | 17.7 | 22.5 | 93.04 | 0.00 | 0.00 | 78 | 1009.0 |
| 20260504130311 | 13 | 249 | 20.9 | 30.6 | 93.04 | 0.00 | 0.00 | 83 | 1009.3 |
| 20260504110313 | 10 | 257 | 1.6 | 6.4 | 93.04 | 0.00 | 0.00 | 100 | 1010.1 |
| 20260504081301 | 9 | 238 | 6.4 | 9.7 | 93.04 | 0.00 | 0.00 | 97 | 1010.4 |
| 20260504080314 | 9 | 243 | 6.4 | 9.7 | 93.04 | 0.00 | 0.00 | 97 | 1010.3 |
| 20260504070303 | 8 | 195 | 4.8 | 6.4 | 93.04 | 0.00 | 0.00 | 96 | 1010.5 |
| 20260504045301 | 9 | 295 | 6.4 | 9.7 | 93.04 | 0.00 | 0.00 | 91 | 1010.5 |
| 20260504044308 | 9 | 245 | 1.6 | 6.4 | 93.04 | 0.00 | 0.00 | 91 | 1010.5 |
| 20260504043303 | 9 | 287 | 1.6 | 4.8 | 93.04 | 0.00 | 0.00 | 90 | 1010.4 |
| 20260504042305 | 9 | 283 | 4.8 | 6.4 | 93.04 | 0.00 | 0.00 | 89 | 1010.2 |
| 20260504041301 | 9 | 295 | 6.4 | 8.0 | 93.04 | 0.00 | 0.00 | 90 | 1010.2 |
| 20260504040302 | 9 | 291 | 4.8 | 8.0 | 93.04 | 0.00 | 0.00 | 90 | 1010.1 |
| 20260504035301 | 9 | 0 | 0.0 | 0.0 | 93.04 | 0.00 | 0.00 | 90 | 1010.1 |
| 20260504034302 | 8 | 0 | 0.0 | 0.0 | 93.04 | 0.00 | 0.00 | 90 | 1009.9 |
| 20260504033303 | 9 | 0 | 0.0 | 0.0 | 93.04 | 0.00 | 0.00 | 88 | 1009.7 |
| 20260504032304 | 9 | 0 | 0.0 | 0.0 | 93.04 | 0.00 | 0.00 | 87 | 1009.7 |
| 20260504031301 | 9 | 0 | 0.0 | 0.0 | 93.04 | 0.00 | 0.03 | 86 | 1009.6 |
| 20260504030309 | 10 | 0 | 0.0 | 0.0 | 93.04 | 0.00 | 0.03 | 86 | 1009.5 |
| 20260504025301 | 10 | 257 | 1.6 | 3.2 | 93.04 | 0.00 | 0.03 | 84 | 1009.5 |
| 20260504024301 | 10 | 309 | 3.2 | 4.8 | 93.04 | 0.00 | 0.03 | 85 | 1009.5 |
| 20260504023310 | 10 | 326 | 0.0 | 3.2 | 93.04 | 0.00 | 0.03 | 84 | 1009.4 |
| 20260504022304 | 10 | 338 | 1.6 | 4.8 | 93.04 | 0.00 | 0.03 | 84 | 1009.5 |
| 20260504021301 | 10 | 302 | 3.2 | 4.8 | 93.04 | 0.00 | 0.03 | 83 | 1009.5 |
| 20260504020305 | 10 | 288 | 0.0 | 3.2 | 93.04 | 0.00 | 0.03 | 84 | 1009.4 |
| 20260504015301 | 10 | 0 | 0.0 | 0.0 | 93.04 | 0.00 | 0.03 | 83 | 1009.4 |
| 20260504014303 | 10 | 284 | 1.6 | 3.2 | 93.04 | 0.00 | 0.03 | 81 | 1009.3 |
| 20260504013303 | 10 | 273 | 3.2 | 3.2 | 93.04 | 0.00 | 0.03 | 84 | 1009.3 |
| 20260504012304 | 10 | 0 | 0.0 | 0.0 | 93.04 | 0.00 | 0.03 | 84 | 1009.3 |
| 20260504011301 | 11 | 0 | 0.0 | 0.0 | 93.04 | 0.00 | 0.03 | 87 | 1009.0 |
| 20260504010307 | 11 | 0 | 0.0 | 0.0 | 93.04 | 0.00 | 0.03 | 85 | 1008.9 |
| 20260504005301 | 11 | 0 | 0.0 | 0.0 | 93.04 | 0.00 | 0.03 | 84 | 1008.9 |